Tracking 35331 objects as of 16-Sep-2026
HD Live streaming from Space Station
objects crossing your sky now

HOTBIRD 13F

Track HOTBIRD 13F now!
HOTBIRD 13F is classified as:


NORAD ID: 54048
Int'l Code: 2022-134A
Launch date: October 15, 2022
Source: ()
Launch site: AIR FORCE EASTERN TEST RANGE (AFETR)
Your satellite tracking list
Your tracking list is empty




NASA's NSSDC Master Catalog

Two Line Element Set (TLE):
1 54048U 22134A   26258.78942515  .00000081  00000-0  00000-0 0  9996
2 54048   0.0607 291.2935 0002019  76.5916 284.0562  1.00272423 14286
Source of the keplerian elements: AFSPC